Back to catalog

SL-16 DEB

LostLEO
NORAD 39884·DEBRIS·🇷🇺 Russia

Launched Mar 26, 1993 from Baikonur Cosmodrome

Loading…

Next Passes (next 24 hours)

TLE

StaleSource: Space-Track

Epoch: Nov 14, 2022, 22:04 UTC

1 39884U 93016BJ  22318.91971825  .00005330  00000-0  20520-2 0  9991
2 39884  70.9592 163.9887 0119094 355.9234   4.0911 14.26907657923885

Track SL-16 DEB in real time with AllMySat

Download on the App Store